STARLINK-5744 (55601 NORAD) Tracking and Keplerian Element Data

This shows tracking and keplerian element data for the satellite.

Feedback or suggestion? Click here.




ElementValue
Catalog55601
NameSTARLINK-5744
Epoch Orbit130
Epoch Day84.91667824
Epoch Year2023
RAAN111.6108
Inclination42.9993
Eccentricity0.0001333
Argument of Perigee272.813
Mean Anonmoly167.4028
Mean Motion15.1004335
Decay Rate-0.01158507
L11 55601U 23020AJ 23084.91667824 -.01158507 00000+0 -76125-1 0 9994
L22 55601 42.9993 111.6108 0001333 272.8130 167.4028 15.10043350 1300



Live tracking and technical data element details for STARLINK-5744 (NORAD 55601). STARLINK-5744 can be tracked NOW for your location showing map with azimuth and elevation plus other details from your city location.







IsCatalogInMostPopularTable: catalog: 55601, numindb: -1

Insert: records affected: 1


GetName: 55601 STARLINK-5744

Hit Count: inserted at: Tue, 28 Mar 2023 02:55:16 GMT